ELECTRON KICK STAGE R/B

Satellite information

Favourite Embed

Satellite Type and Status

ROCKET BODYIN ORBIT

Key statistics

Satellite ELECTRON KICK STAGE R/B at a glance.

Uptime

131

Days in orbit

Revolutions

≈ 15.0

Per day

Orbit

LEO

Low Earth Orbit

Inclination

42.0

Latest

Satellite identification and parameters

Extended collection of information and parameters for ELECTRON KICK STAGE R/B.

Object identification

Identified? True

Debris? False

Object name: ELECTRON KICK STAGE R/B

International designator: 2025-169B

Object number (NORAD): 65117

Object ID (CCSDS): 65117

Country: UNITED STATES OF AMERICA (US)

Current information (Y/N): Y

RCS size: MEDIUM

Orbital parameters

Period: 96.054 minutes

Inclination: 42.013 deg

SMA: 6947.621 km

Apoapsis: 573.528 km

Periapsis: 565.444 km

RAAN: 323.5732 deg

Eccentricy: 0.00058175

Argument of periapsis: 47.1623 deg

Mean anomaly: 312.969 deg

Mean motion: 14.99162136 rev/day

Mean motion (dot): 0.00009886 rev/day2

B* drag term: 0.0008127261 1/REarth

Two-line elements (TLE)

Creation date: Dec. 12, 2025, 10:14 a.m.

Reference frame: TEME

Reference center: EARTH

Epoch: Dec. 12, 2025, 4:56 a.m. UTC

TLE line 0: 0 ELECTRON KICK STAGE R/B

TLE line 1: 1 65117U 25169B 25346.20616815 .00009886 00000-0 81273-3 0 9997

TLE line 2: 2 65117 42.0130 323.5732 0005817 47.1623 312.9690 14.99162136 19340

Live tracking on map

Real-time ground track for satellite ELECTRON KICK STAGE R/B.

In-orbit conjunctions

A list of the most updated potential collisions computed for object ELECTRON KICK STAGE R/B.

Target Orbit TCA Probability of collision Miss distance Type
SS 1 LEO 2025-09-05 21:32:16 0.001290487 941.0 (m) PAYLOAD

Associated space launch

Synthetic aperture radar Earth observation satellite for Japanese Earth imaging company iQPS.

ELECTRON KICK STAGE R/B was lifted into orbit during the mission ‘Electron | The Harvest Goddess Thrives (iQPS Launch 4)’, on board a Electron space rocket.

The launch took place on Aug. 5, 2025, 4:10 a.m. from Rocket Lab Launch Complex 1B.

For more information about the launch, click the button.

Launch to space Electron | The Harvest Goddess Thrives (iQPS Launch 4)
Electron | The Harvest Goddess Thrives (iQPS Launch 4)

Agency: N/A

Status: Launch Successful

Launch date: Aug. 5, 2025, 4:10 a.m. UTC

Rocket: Electron

Launch pad: Rocket Lab Launch Complex 1B

Location: Rocket Lab Launch Complex 1, Mahia Peninsula, New Zealand

...

Latest news about this satellite

News about space launch
Launch Roundup: Vulcan and Electron to launch between Falcon 9 missions

Four rockets are scheduled to launch from the U.S. this week. SpaceX is planning to… The post Launch Roundup: Vulcan and Electron to launch between Falcon 9 missions appeared first on NASASpaceFlight.com.

News about space launch
Japan’s iQPS lines up eight SAR launches

ST. LOUIS — Japan’s Institute for Q-shu Pioneers of Space, iQPS, plans to launch eight additional synthetic aperture radar (SAR) satellites through the end of 2026. Rocket Lab, the U.S. launch […] The post Japan’s iQPS lines up eight SAR launches appeare...


Newsletter sign-up

Weekly statistics, charts and insights to help you stay on top of the space industry.